Home > Weather > Montreal > Past weeks

Flag for Canada Past Weather in Montreal, Quebec, Canada — Yesterday and Last 2 Weeks

Now
70 °F

Passing clouds.


Feels Like: 70 °F
Forecast: 69 / 77 °F
Wind: 5 mph from Southwest

Location: Montreal - Pierre Elliot Trudeau International Aiport

Current Time: Jul 23, 2016 at 7:18:25 AM

Latest Report: Jul 23, 2016 at 6:00 AM


Visibility: 30 mi

Pressure: 29.76 "Hg

Humidity: 83%

Dew Point: 64 °F

Location of MontrealLocation

Past Weather in Montreal — Graph

°F

Montreal Temperature Yesterday

Maximum temperature yesterday: 91 °F (at 5:00 PM)
Minimum temperature yesterday: 72 °F (at 2:00 AM)
Average temperature yesterday: 80 °F

High & Low Weather Summary for the Past Weeks

 TemperatureHumidityPressure
High91 °F (Jul 13, 3:00 PM)100% (Jul 10, 5:00 AM)30.19 "Hg (Jul 10, 5:00 AM)
Low54 °F (Jul 11, 2:00 AM)36% (Jul 19, 6:00 PM)29.63 "Hg (Jul 14, 5:00 PM)
Average72 °F70%29.91 "Hg
* Reported Jul 8 6:00 AM — Jul 23 6:00 AM, Montreal, Weather by CustomWeather, © 2016

Note: Actual official high and low records may vary slightly from our data, if they occured in-between our weather recording intervals... More about our weather records

Advertising

Montreal Weather History for the Previous 24 Hours

Scroll right to see more
 ConditionsComfort  
Time TempWeatherWind HumidityBarometerVisibility
6:00 AM
Sat, Jul 23
70 °FPassing clouds.5 mph83%29.76 "Hg30 mi
5:00 AM70 °FPartly cloudy.7 mph83%29.74 "Hg15 mi
4:00 AM72 °FSprinkles. Overcast.9 mph78%29.73 "Hg15 mi
3:00 AM72 °FPartly cloudy.10 mph83%29.73 "Hg15 mi
2:00 AM73 °FPassing clouds.5 mph74%29.72 "Hg15 mi
1:00 AM75 °FPassing clouds.2 mph69%29.72 "Hg15 mi
12:00 AM77 °FPartly cloudy.8 mph65%29.72 "Hg15 mi
11:00 PM
Fri, Jul 22
81 °FPartly cloudy.8 mph58%29.70 "Hg15 mi
10:00 PM79 °FOvercast.8 mph65%29.68 "Hg15 mi
9:00 PM82 °FBroken clouds.5 mph55%29.68 "Hg15 mi
8:00 PM84 °FBroken clouds.7 mph51%29.67 "Hg15 mi
7:00 PM86 °FBroken clouds.9 mph49%29.66 "Hg15 mi
6:00 PM88 °FPartly sunny.16 mph46%29.66 "Hg15 mi
5:00 PM91 °FPartly sunny.17 mph38%29.67 "Hg30 mi
4:00 PM90 °FPassing clouds.20 mph43%29.67 "Hg30 mi
3:00 PM88 °FPassing clouds.21 mph49%29.68 "Hg15 mi
2:00 PM86 °FPassing clouds.22 mph55%29.70 "Hg15 mi
1:00 PM84 °FScattered clouds.22 mph58%29.70 "Hg15 mi
12:00 PM82 °FScattered clouds.21 mph66%29.70 "Hg15 mi
11:00 AM81 °FBroken clouds.20 mph70%29.70 "Hg15 mi
10:00 AM81 °FBroken clouds.20 mph70%29.70 "Hg15 mi
9:00 AM79 °FPartly sunny.16 mph74%29.71 "Hg15 mi
8:00 AM75 °FPartly sunny.15 mph78%29.71 "Hg15 mi
7:00 AM75 °FPartly sunny.8 mph78%29.72 "Hg15 mi
Weather by CustomWeather, © 2016

See weather overviewHow to use our weather pages